Weather History for International Falls, MN

Change the Weather History Date:

Saturday, July 13, 2013

  Actual Average Record
Temperature  
Mean Temperature 78 °F 65 °F  
Max Temperature 87 °F 78 °F 93 °F (1983)
Min Temperature 69 °F 53 °F 35 °F (2009)
Degree Days  
Heating Degree Days 0 2  
Month to date heating degree days 2 33  
Since 1 June heating degree days 171 197  
Since 1 July heating degree days 2 33  
Cooling Degree Days 13 3  
Month to date cooling degree days 53 30  
Year to date cooling degree days 90 77  
Since 1 June cooling degree days 87 68  
Growing Degree Days 28 (Base 50)    
Moisture  
Dew Point 67 °F    
Average Humidity 69    
Maximum Humidity 100    
Minimum Humidity 37    
Precipitation  
Precipitation 0.00 in 0.12 in 2.85 in (2012)
Month to date precipitation 1.67 1.79  
Year to date precipitation 15.65 12.24  
Snow  
Snow 0.00 in 0.00 in 0.00 in (2002)
Month to date snowfall 0.0 0.0  
Since 1 June snowfall 0.0 0.0  
Since 1 July snowfall 0.0 0.0  
Snow Depth 0.00 in    
Sea Level Pressure  
Sea Level Pressure 29.94 in    
Wind  
Wind Speed 2 mph (ESE)    
Max Wind Speed 10 mph    
Max Gust Speed 14 mph    
Visibility 9 miles    
Events      
T = Trace of Precipitation, MM = Missing Value Source: NWS Daily Summary

Daily Weather History Graph

Daily Weather History Graph

Search for Another Location

Airport:

Trip Planner

Search our weather history database for the weather conditions in past years. The results will help you decide how hot, cold, wet, or windy it might be!

Date:

Astronomy

Jul. 13, 2013 Rise Set
Actual Time 5:25 AM CDT 9:12 PM CDT
Civil Twilight 4:45 AM CDT 9:52 PM CDT
Nautical Twilight 3:50 AM CDT 10:47 PM CDT
Astronomical Twilight 2:27 AM CDT 12:08 AM CDT
Moon 11:13 AM CDT (7/13) 11:20 PM CDT (7/13)
Length of Visible Light 17h 07m
Length of Day
15h 46m
Waxing Crescent, 26% of the Moon is Illuminated
Jul 13
Waxing Crescent
Jul 15
First Quarter
Jul 22
Full
Jul 29
Last Quarter
Aug 6
New

Hourly Weather History & Observations

Time (CDT) Temp. Heat Index Dew Point Humidity Pressure Visibility Wind Dir Wind Speed Gust Speed Precip Events Conditions
12:22 AM 69.8 °F - 66.2 °F 88% 29.85 in 10.0 mi SW 4.6 mph - N/A   Mostly Cloudy
12:33 AM 69.8 °F - 66.2 °F 88% 29.86 in 10.0 mi WSW 3.5 mph - N/A   Scattered Clouds
12:55 AM 69.1 °F - 66.9 °F 93% 29.85 in 9.0 mi Calm Calm - N/A   Mostly Cloudy
1:13 AM 69.8 °F - 68.0 °F 94% 29.87 in 9.0 mi SW 4.6 mph - N/A   Overcast
1:55 AM 70.0 °F - 68.0 °F 93% 29.85 in 10.0 mi Calm Calm - N/A   Overcast
2:06 AM 69.8 °F - 68.0 °F 94% 29.86 in 10.0 mi Calm Calm - N/A   Overcast
2:55 AM 70.0 °F - 68.0 °F 93% 29.86 in 10.0 mi Calm Calm - N/A   Overcast
3:10 AM 69.8 °F - 68.0 °F 94% 29.87 in 10.0 mi SSE 3.5 mph - N/A   Overcast
3:55 AM 70.0 °F - 68.0 °F 93% 29.87 in 9.0 mi Calm Calm - N/A   Overcast
4:55 AM 70.0 °F - 69.1 °F 97% 29.89 in 8.0 mi Calm Calm - N/A   Overcast
5:11 AM 69.8 °F - 69.8 °F 100% 29.90 in 7.0 mi Calm Calm - N/A   Overcast
5:55 AM 70.0 °F - 69.1 °F 97% 29.91 in 4.0 mi Calm Calm - N/A   Mostly Cloudy
6:31 AM 71.6 °F - 69.8 °F 94% 29.94 in 5.0 mi Calm Calm - N/A   Overcast
6:55 AM 71.1 °F - 69.1 °F 93% 29.94 in 9.0 mi Calm Calm - N/A   Overcast
7:28 AM 71.6 °F - 69.8 °F 94% 29.96 in 10.0 mi Calm Calm - N/A   Overcast
7:55 AM 73.0 °F - 69.1 °F 87% 29.96 in 10.0 mi West 3.5 mph - N/A   Overcast
8:20 AM 73.4 °F - 69.8 °F 88% 29.98 in 10.0 mi West 3.5 mph - N/A   Overcast
8:55 AM 75.0 °F - 69.1 °F 82% 29.97 in 10.0 mi Calm Calm - N/A   Overcast
9:55 AM 79.0 °F - 68.0 °F 69% 29.97 in 10.0 mi Calm Calm - N/A   Scattered Clouds
10:55 AM 79.0 °F - 68.0 °F 69% 29.97 in 10.0 mi Calm Calm - N/A   Clear
11:55 AM 82.0 °F 84.5 °F 66.9 °F 60% 29.97 in 10.0 mi Calm Calm - N/A   Scattered Clouds
12:55 PM 84.0 °F 87.8 °F 69.1 °F 61% 29.98 in 10.0 mi Calm Calm - N/A   Clear
1:55 PM 81.0 °F 84.1 °F 69.1 °F 67% 29.98 in 10.0 mi NE 6.9 mph - N/A   Clear
2:55 PM 84.0 °F 87.0 °F 68.0 °F 58% 29.97 in 10.0 mi ENE 5.8 mph - N/A   Clear
3:55 PM 84.9 °F 87.6 °F 66.9 °F 55% 29.97 in 10.0 mi NNE 5.8 mph - N/A   Clear
4:55 PM 84.9 °F 85.0 °F 61.0 °F 44% 29.98 in 10.0 mi NNE 4.6 mph - N/A   Clear
5:55 PM 86.0 °F 84.9 °F 57.0 °F 37% 29.97 in 10.0 mi ENE 6.9 mph - N/A   Clear
6:55 PM 84.9 °F 85.4 °F 62.1 °F 46% 29.96 in 10.0 mi ENE 4.6 mph - N/A   Clear
7:55 PM 82.9 °F 84.6 °F 64.9 °F 54% 29.95 in 10.0 mi East 4.6 mph - N/A   Clear
8:55 PM 75.9 °F - 66.0 °F 71% 29.96 in 10.0 mi SE 4.6 mph - N/A   Clear
9:55 PM 73.9 °F - 69.1 °F 85% 30.00 in 10.0 mi SE 3.5 mph - N/A   Clear
10:55 PM 73.0 °F - 69.1 °F 87% 30.02 in 10.0 mi Calm Calm - N/A   Clear
11:55 PM 71.1 °F - 68.0 °F 90% 30.02 in 10.0 mi SSE 3.5 mph - N/A   Clear